Wind_Speed
11 11 12 15 13 12 14 13 11 11 11 6 5 5 7 4 5 3 4 7 8 11 15 14 11 10 7 12 14 12 11 9 7 9 9 8 10 16 15 14 10 9 6 2
15 14 17 16 16 14 13 15 16 13 9 9 4 2 6 5 4 7 8 9 12 10 12 11 10 9 6 7 12 11 11 8 8 9 10 11 15 16 16 14 10 8 6 8
17 19 17 17 17 16 14 15 17 18 15 11 6 1 7 6 4 7 12 11 14 9 10 11 10 9 8 7 9 9 9 7 7 5 8 12 16 18 17 16 13 8 6 8
18 20 19 18 18 15 16 18 16 19 21 14 11 1 3 3 4 9 11 12 13 13 12 13 11 10 12 10 10 7 8 8 6 7 7 14 15 18 17 16 12 12 9 14
16 18 17 16 12 15 11 19 22 22 20 19 14 6 7 7 7 6 10 8 8 10 11 13 11 13 12 11 12 10 9 11 9 9 9 14 17 16 14 13 13 14 14 13
20 19 17 16 19 19 18 20 22 23 21 18 16 9 4 3 5 9 9 5 5 9 11 9 2 10 12 12 12 23 12 12 11 10 12 12 14 13 10 14 15 15 16 15
19 20 20 19 18 22 21 22 23 21 18 18 17 15 8 2 2 6 10 6 3 5 8 10 7 8 10 11 15 18 13 13 13 13 13 14 14 13 13 15 14 13 13 16
20 21 20 19 19 24 25 24 21 25 17 14 16 16 9 9 4 6 2 6 8 5 9 11 9 6 6 13 20 18 16 15 14 15 14 15 15 15 14 15 16 14 13 15
23 21 25 25 24 28 25 22 19 23 20 17 13 12 13 13 13 12 6 3 9 9 7 6 10 11 9 9 12 25 15 15 14 15 15 15 16 15 15 15 15 15 15 16
21 17 17 22 27 29 30 26 24 18 21 18 12 9 14 12 11 16 9 2 4 5 7 9 12 15 15 12 11 14 18 15 15 17 15 14 15 15 15 15 14 14 16 15
25 20 16 20 25 27 30 31 30 29 25 25 19 9 18 20 17 9 10 7 2 2 6 9 9 12 14 15 13 14 18 16 19 18 16 14 16 15 15 15 14 13 15 15
36 31 25 19 22 27 30 30 33 31 31 30 28 11 13 21 20 20 13 12 7 5 4 9 9 9 12 16 16 14 20 19 20 20 17 15 14 14 14 14 15 15 16 17
37 39 36 34 32 28 29 31 32 33 36 37 34 25 21 15 24 21 17 17 13 7 8 7 8 8 10 13 16 17 21 22 23 22 21 17 15 16 14 15 16 16 16 18
33 35 37 37 38 42 40 37 34 35 37 39 38 28 29 21 19 23 18 15 13 9 6 11 13 8 10 12 13 16 20 21 24 24 22 22 18 17 16 17 17 16 16 17
39 39 40 39 40 42 44 46 44 41 40 39 34 38 30 30 22 18 22 21 19 11 6 8 7 7 9 11 9 9 9 16 21 24 25 23 19 18 17 19 19 17 17 17
41 42 42 41 42 44 46 44 44 48 46 43 39 39 35 34 31 20 21 25 21 14 10 11 12 15 7 10 9 7 8 12 17 23 21 22 20 16 17 22 20 19 20 21
38 40 42 43 42 44 45 42 44 43 43 44 44 41 43 40 40 31 25 21 28 23 20 14 14 17 6 6 11 9 10 11 11 21 26 22 20 16 16 19 19 24 23 23
38 41 43 44 44 46 42 42 44 41 40 42 42 41 38 38 41 37 33 23 24 27 26 19 14 11 6 7 9 11 11 11 12 18 25 17 16 14 15 16 19 23 26 26
37 38 40 42 43 42 37 40 42 41 37 39 41 43 41 36 38 41 37 32 25 22 27 26 18 18 11 13 13 9 11 12 8 14 18 18 14 20 15 17 21 25 25 26
33 33 36 40 41 40 36 36 37 40 40 37 38 39 38 38 37 36 38 36 28 26 21 27 23 26 17 17 17 14 13 11 9 12 11 16 11 13 12 10 12 16 26 31
31 38 42 42 44 44 41 40 39 40 35 33 36 39 40 39 40 37 38 36 33 34 26 28 19 24 22 19 19 15 15 13 11 10 8 7 10 9 8 9 8 5 4 3
36 40 41 43 43 42 42 41 42 42 41 38 38 40 40 41 39 38 40 38 28 31 29 28 25 24 20 19 21 18 16 18 12 11 10 9 7 7 8 9 9 8 8 7
39 43 44 42 39 35 37 40 42 42 42 44 40 38 40 42 40 36 40 38 33 35 36 31 30 25 22 20 20 21 21 20 17 15 15 13 11 11 12 12 12 13 13 12
41 43 41 37 31 32 31 34 37 40 39 40 40 40 40 42 40 38 37 37 38 40 38 36 35 31 31 29 27 23 26 25 24 21 21 19 16 17 18 17 18 18 18 18
41 37 35 33 31 35 35 39 38 39 36 36 36 38 38 40 42 41 40 38 37 43 42 40 40 41 41 36 30 30 31 26 27 25 22 25 23 23 22 22 23 22 22 22
38 31 33 29 28 30 23 27 27 31 32 34 33 33 37 38 41 43 41 41 39 40 44 40 36 41 45 41 37 31 33 28 29 27 24 25 24 23 23 24 23 22 22 22
Wind_Direction
285 288 289 295 307 321 326 329 313 310 317 297 291 275 234 318 333 336 223 254 247 241 240 241 232 215 233 241 229 217 212 217 228 246 236 224 210 189 201 191 162 147 145 119
274 273 280 292 297 300 314 318 302 307 312 333 353 252 216 244 265 298 295 250 260 267 239 234 223 224 213 251 232 212 209 206 227 241 234 215 206 196 206 196 198 181 170 163
273 275 280 282 286 292 303 300 299 303 308 321 14 119 199 204 237 271 297 299 245 251 239 239 233 215 222 235 243 221 213 204 234 251 200 198 189 190 206 210 209 198 194 177
275 274 275 279 284 289 299 290 284 291 300 310 324 216 174 215 252 252 272 273 249 240 249 247 234 204 215 223 241 243 226 213 213 174 183 174 189 195 208 227 229 197 187 170
267 273 275 281 279 274 268 275 283 288 294 303 310 283 191 213 240 287 310 320 244 262 275 277 261 206 218 206 251 235 228 217 187 164 174 164 175 193 207 210 208 200 188 173
258 263 266 259 262 272 264 271 276 285 294 299 275 246 176 277 267 54 22 292 313 302 293 282 247 199 216 219 231 236 211 214 183 171 186 175 166 185 190 203 200 198 192 195
255 258 264 263 266 264 261 262 271 278 287 300 274 267 233 325 199 102 31 34 10 283 275 262 257 247 227 221 240 268 225 211 184 180 191 186 182 173 179 187 191 196 199 205
257 259 253 244 235 240 242 253 270 283 288 293 278 266 220 235 216 202 357 37 14 336 266 269 285 261 263 239 237 242 230 211 195 186 192 188 194 201 196 189 197 201 202 203
272 271 256 245 221 230 237 248 257 274 279 289 299 274 224 249 229 221 200 115 13 17 17 287 264 262 258 267 259 235 230 225 207 202 191 201 194 202 205 203 196 198 203 201
275 269 250 246 241 234 249 249 254 261 264 271 286 252 206 222 221 178 176 117 29 359 336 325 280 273 272 266 273 256 247 240 222 219 209 208 210 205 212 219 206 211 208 215
281 269 248 243 253 256 250 253 254 259 257 266 272 254 226 227 235 215 219 204 245 17 324 312 297 286 272 276 265 269 243 235 232 222 220 217 218 209 215 221 220 222 217 218
281 281 271 256 245 245 250 255 253 255 260 262 271 255 248 226 233 235 222 248 245 275 334 294 284 281 284 285 270 262 245 235 229 222 219 222 228 217 213 218 218 218 219 219
270 273 279 279 274 262 253 253 253 254 259 266 271 272 255 250 238 234 242 255 246 268 257 277 274 275 286 281 269 261 251 243 232 224 224 221 231 228 217 218 218 218 217 218
272 271 270 271 272 271 268 267 261 263 256 264 259 268 279 257 252 241 240 258 260 277 304 279 280 292 297 291 277 259 249 243 238 233 231 228 235 231 229 229 229 226 222 218
276 277 276 275 271 269 271 269 267 264 267 265 264 260 267 268 250 251 246 247 253 262 278 297 273 277 294 294 287 280 251 248 236 222 225 226 228 235 236 233 233 242 240 236
278 279 278 276 274 271 269 269 266 265 263 261 262 262 264 267 264 253 245 245 244 248 245 268 279 275 277 293 293 289 265 254 242 238 221 220 217 222 229 233 236 233 243 247
277 280 279 278 275 274 274 272 271 266 264 264 262 258 258 253 261 253 257 248 244 250 254 248 271 281 266 305 306 297 279 244 239 228 236 225 227 221 224 231 237 239 242 242
282 281 280 279 278 274 272 270 269 267 262 260 262 262 253 252 250 251 252 248 241 245 248 248 243 236 256 288 281 307 300 284 260 273 243 234 222 220 230 237 236 246 251 248
288 286 285 284 281 277 273 271 270 267 260 257 258 260 259 253 249 247 242 245 247 238 239 235 232 237 261 270 263 267 279 281 271 272 245 222 213 222 234 238 237 264 264 255
286 287 289 286 284 280 272 262 258 262 260 254 252 251 255 253 247 244 243 239 233 236 236 239 242 246 248 252 234 233 246 256 264 259 267 202 238 228 230 248 257 262 261 255
284 289 287 286 284 280 274 266 264 259 256 253 249 245 244 245 245 239 245 242 232 237 223 231 241 237 235 243 225 219 236 240 246 264 257 226 217 211 237 239 238 251 242 229
286 286 287 283 279 279 278 274 266 261 258 251 246 243 242 241 240 237 238 243 237 215 218 232 232 230 241 232 221 215 225 235 230 238 231 227 221 220 224 232 244 244 246 257
291 291 289 286 288 286 277 271 267 260 256 255 247 241 236 237 236 233 234 236 230 216 220 221 226 235 239 237 219 211 215 224 225 231 234 218 218 234 247 253 255 262 266 269
293 291 297 294 298 283 270 262 258 257 251 246 244 241 235 233 231 229 228 229 226 217 216 218 230 233 236 237 234 219 215 216 220 226 232 230 225 235 246 253 258 261 263 265
291 301 302 305 297 281 278 271 260 249 245 240 237 237 234 230 231 223 222 223 222 219 216 219 225 238 246 249 229 218 211 212 219 224 226 235 239 240 245 251 252 257 262 267
296 303 305 312 302 293 281 265 247 232 233 231 227 232 230 227 228 223 218 219 220 223 220 213 219 229 236 238 232 227 221 210 211 214 214 223 236 242 247 250 253 254 258 266
Height
5894 5894 5893 5892 5892 5891 5891 5890 5889 5887 5886 5886 5883 5882 5881 5881 5881 5880 5879 5878 5877 5875 5874 5873 5874 5875 5876 5877 5876 5877 5878 5879 5881 5882 5882 5884 5886 5889 5891 5894 5897 5899 5900 5900
5892 5892 5891 5890 5890 5890 5890 5889 5887 5887 5886 5884 5883 5882 5880 5880 5880 5879 5877 5875 5874 5872 5871 5870 5872 5873 5874 5876 5876 5875 5876 5877 5880 5880 5880 5882 5885 5887 5889 5893 5896 5899 5899 5900
5888 5889 5889 5888 5888 5888 5888 5888 5886 5886 5884 5883 5882 5880 5878 5879 5877 5876 5874 5873 5872 5871 5869 5869 5870 5871 5872 5874 5875 5875 5875 5875 5878 5878 5877 5880 5883 5886 5888 5891 5895 5898 5899 5899
5885 5885 5886 5886 5885 5886 5886 5884 5885 5883 5881 5882 5880 5880 5879 5878 5876 5874 5871 5870 5870 5871 5869 5867 5868 5869 5870 5872 5872 5873 5874 5875 5877 5878 5878 5879 5883 5885 5887 5890 5893 5896 5898 5900
5883 5881 5882 5883 5882 5882 5884 5882 5882 5881 5880 5880 5878 5878 5876 5875 5875 5874 5872 5869 5869 5871 5870 5867 5867 5868 5868 5870 5870 5871 5873 5875 5875 5876 5878 5879 5881 5884 5886 5889 5892 5894 5897 5900
5877 5878 5880 5881 5880 5880 5880 5879 5878 5878 5877 5878 5875 5877 5876 5875 5875 5875 5872 5870 5869 5869 5867 5865 5866 5868 5869 5870 5870 5868 5869 5873 5874 5875 5879 5881 5880 5883 5885 5886 5890 5893 5896 5899
5874 5873 5874 5877 5878 5875 5875 5874 5874 5875 5875 5874 5872 5873 5875 5874 5873 5873 5872 5870 5868 5867 5865 5865 5866 5868 5869 5869 5869 5867 5869 5871 5872 5875 5878 5880 5881 5883 5884 5886 5890 5893 5894 5897
5870 5870 5870 5871 5872 5870 5869 5870 5870 5867 5870 5871 5868 5869 5872 5872 5872 5872 5871 5870 5868 5865 5863 5863 5864 5865 5867 5868 5867 5869 5871 5870 5870 5874 5877 5878 5881 5883 5884 5886 5888 5891 5894 5895
5867 5869 5865 5865 5865 5865 5866 5867 5868 5865 5867 5867 5867 5866 5868 5869 5870 5870 5870 5868 5867 5865 5863 5861 5860 5861 5863 5864 5866 5868 5870 5870 5869 5872 5875 5878 5879 5882 5883 5884 5886 5889 5892 5894
5862 5864 5864 5864 5862 5862 5862 5864 5864 5863 5862 5862 5864 5863 5864 5866 5867 5866 5866 5865 5864 5863 5862 5861 5859 5857 5858 5861 5862 5865 5867 5867 5868 5871 5873 5877 5879 5880 5882 5884 5884 5886 5889 5893
5854 5857 5861 5861 5860 5859 5859 5857 5858 5859 5859 5858 5860 5862 5860 5862 5864 5866 5864 5862 5861 5861 5860 5859 5857 5856 5856 5857 5859 5861 5862 5864 5867 5869 5871 5874 5877 5878 5880 5882 5882 5883 5886 5889
5845 5845 5848 5852 5852 5853 5852 5852 5852 5853 5854 5854 5854 5860 5856 5857 5860 5862 5862 5861 5860 5859 5857 5857 5856 5855 5854 5854 5855 5858 5860 5862 5865 5867 5869 5872 5875 5876 5877 5880 5881 5882 5883 5885
5838 5837 5838 5841 5843 5843 5843 5844 5845 5846 5847 5848 5849 5853 5852 5854 5856 5857 5860 5859 5858 5856 5855 5853 5854 5853 5852 5852 5853 5854 5856 5859 5861 5863 5865 5868 5871 5873 5874 5876 5878 5879 5880 5882
5828 5828 5829 5831 5832 5831 5834 5835 5837 5838 5838 5838 5840 5844 5845 5848 5850 5853 5855 5856 5856 5854 5852 5851 5850 5852 5851 5850 5850 5850 5851 5855 5857 5860 5862 5865 5868 5870 5871 5873 5874 5875 5877 5878
5819 5819 5818 5820 5820 5818 5821 5823 5826 5827 5828 5827 5833 5833 5839 5839 5844 5847 5849 5850 5852 5853 5851 5849 5847 5847 5848 5848 5847 5847 5848 5849 5853 5857 5856 5859 5862 5864 5867 5869 5870 5872 5872 5873
5808 5808 5807 5809 5806 5806 5807 5812 5813 5813 5817 5818 5822 5824 5829 5832 5835 5840 5843 5845 5847 5849 5849 5848 5845 5845 5844 5845 5845 5844 5844 5846 5849 5852 5853 5853 5855 5858 5861 5864 5867 5869 5869 5871
5800 5798 5796 5796 5795 5794 5795 5800 5799 5801 5804 5806 5809 5815 5817 5822 5824 5830 5833 5837 5840 5843 5845 5845 5843 5842 5842 5841 5840 5841 5842 5843 5844 5845 5848 5850 5855 5852 5856 5860 5863 5864 5865 5867
5791 5788 5786 5786 5784 5782 5785 5784 5784 5788 5791 5794 5797 5800 5806 5809 5814 5820 5822 5828 5830 5835 5837 5840 5840 5839 5839 5837 5836 5837 5838 5840 5842 5845 5848 5850 5850 5850 5853 5854 5857 5857 5858 5860
5779 5776 5774 5772 5770 5771 5773 5770 5770 5773 5779 5782 5785 5789 5791 5797 5802 5807 5813 5818 5822 5826 5831 5832 5832 5835 5835 5834 5834 5834 5836 5837 5839 5837 5838 5842 5843 5848 5850 5858 5852 5851 5852 5854
5767 5765 5764 5761 5758 5756 5758 5759 5760 5759 5763 5767 5771 5774 5778 5783 5789 5796 5802 5808 5813 5818 5823 5826 5828 5828 5828 5829 5830 5832 5833 5834 5837 5836 5837 5830 5841 5844 5846 5847 5848 5851 5850 5849
5758 5753 5750 5747 5745 5745 5745 5747 5747 5748 5753 5753 5756 5760 5764 5768 5775 5784 5789 5796 5803 5808 5813 5818 5821 5823 5823 5823 5824 5826 5830 5831 5833 5833 5835 5837 5840 5838 5840 5844 5846 5848 5849 5849
5747 5742 5740 5734 5731 5732 5730 5732 5734 5735 5736 5740 5743 5746 5752 5756 5762 5771 5779 5785 5793 5800 5806 5810 5813 5815 5818 5818 5818 5819 5824 5828 5831 5833 5833 5833 5835 5837 5840 5842 5843 5845 5847 5848
5734 5730 5726 5723 5721 5720 5717 5716 5715 5718 5723 5725 5731 5734 5739 5744 5751 5759 5768 5776 5783 5791 5798 5802 5806 5809 5813 5816 5814 5815 5817 5822 5825 5827 5830 5831 5833 5836 5838 5839 5841 5843 5844 5845
5721 5715 5713 5710 5711 5703 5700 5700 5700 5701 5706 5712 5717 5723 5729 5735 5740 5748 5757 5766 5774 5781 5788 5794 5798 5801 5805 5808 5810 5810 5812 5814 5819 5821 5825 5828 5829 5831 5835 5837 5839 5841 5841 5842
5708 5705 5702 5699 5694 5688 5687 5683 5684 5688 5693 5699 5705 5711 5718 5724 5730 5738 5747 5757 5765 5770 5776 5784 5789 5792 5796 5800 5803 5802 5803 5806 5810 5814 5818 5823 5826 5829 5832 5834 5836 5837 5839 5840
5698 5696 5691 5688 5682 5677 5676 5669 5671 5676 5683 5688 5695 5701 5707 5714 5719 5727 5737 5748 5755 5760 5767 5774 5780 5784 5786 5789 5795 5797 5798 5797 5800 5806 5811 5816 5821 5825 5827 5829 5831 5833 5834 5834